CZ-6A R/B

基本信息
目录编号:
64961
目录名称:
CZ-6A R/B
国际标识:
2025-159F
轨道中心:
EARTH
物体状态:
在轨
发射日期:
2025-07-27 UTC
国别:
中国 (CN)
轨道信息
数据来源: 国际轨道数据
星历时间: 2026-09-05T08:03:44+0800
半长轴: 7292.521km
偏心率: 0.0101436
轨道倾角: 86.502°
近地点辐角: 319.926°
升交点赤经: 239.463°
平近点角: 39.446°
近地点: 840.411km
远地点: 988.357km
周期: 103.294分钟
每日圈数: 13.940755
详细信息
发射场:
TSC
轨道高度:
LEO
数据来源:
AOE Integration Group
参考系:
TEME
时间系统:
UTC
历元类型:
SGP4
2D轨道图
3D轨道图
轨道高度分析图
轨道倾角分析图
轨道综合分析图
查看轨道综合分析图